weather.gov     
National Weather Service

Regional Weather Roundup
NWS Homepage
This page is being discontinued on March 12, 2014.
The same data is available at this site. Please update your bookmarks.
Thank you, and we apologize for the inconvenience.
Please send an email to SR-SRH.Webmaster@noaa.gov with any concerns.


Current Version
Previous Version:    01  02  03  04  05  06  07  08  09  10  11  12  13  14  15  16  17  18  19  20  21  22  23  24  25  26  27  28  29  30  
   31  32  33  34  35  36  37  38  39  40  41  42  43  44  45  46  47  48  49  50  51  52  53  54  55  56  57  58  59  60  
[Printable]
230
ASUS43 KLOT 282010
RWRIL

ILLINOIS REGIONAL WEATHER ROUNDUP
NATIONAL WEATHER SERVICE CHICAGO/ROMEOVILLE IL
300 PM CDT MON JUL 28 2014

NOTE: "FAIR" INDICATES FEW OR NO CLOUDS BELOW 12,000 FEET WITH NO
SIGNIFICANT WEATHER AND/OR OBSTRUCTIONS TO VISIBILITY.

* THESE STATIONS ARE NOT UNDER NWS QUALITY CONTROL. THEY ALSO MAY NOT
  REPORT WEATHER SUCH AS PRECIPITATION OR FOG.

ILZ001-002-007-009-015-016-024-282100-
NORTHWEST ILLINOIS

CITY           SKY/WX    TMP DP  RH WIND       PRES   REMARKS
MOLINE         PTSUNNY   73  49  42 N9        30.14S
STERLING*      PTSUNNY   73  52  46 N10G16    30.13S
SAVANNA*       CLOUDY    74  47  38 N9        30.13F
$$

ILZ003-004-008-010-011-017-018-282100-
NORTH CENTRAL ILLINOIS

CITY           SKY/WX    TMP DP  RH WIND       PRES   REMARKS
ROCKFORD       PTSUNNY   72  47  40 N17       30.13S
FREEPORT*      PTSUNNY   70  52  52 N6        30.15S
ROCHELLE*      CLOUDY    70  47  44 N13G23    30.12S
DE KALB*       PTSUNNY   67  49  53 N10       30.12S
PERU*          PTSUNNY   72  50  46 N13G21    30.12S
$$

ILZ005-006-012>014-019>023-282100-
NORTHEAST ILLINOIS

CITY           SKY/WX    TMP DP  RH WIND       PRES   REMARKS
CHICAGO-OHARE  PTSUNNY   71  44  37 N12       30.08S
CHICAGO-MIDWAY MOSUNNY   72  44  36 N25G35    30.08F
AURORA         PTSUNNY   70  48  45 N14G20    30.10S
LANSING*       SUNNY     66  43  43 N12G30    30.10R
JOLIET*        SUNNY     71  44  37 N10G16    30.10S
WAUKEGAN       SUNNY     66  50  56 NE9       30.08S
DUPAGE AIRPORT PTSUNNY   70  47  43 N12       30.09S
KANKAKEE*      SUNNY     69  47  45 N14G22    30.10R
WHEELING       PTSUNNY   71  49  45 NE8       30.10S
MORRIS*        MOSUNNY   72  49  44 N5        30.10R
ROMEOVILLE*    MOSUNNY   71  44  37 N12G20    30.09S
NORTHERLY ISL    N/A     64  48  56 N16         N/A
$$

LMZ740>746-282100-
SOUTHERN LAKE MICHIGAN

STATION/POSITION SKY/WX   TEMP    WIND        PRES    VSBY  WAVE
                          AIR SEA DIR/SP/G                  HT/PER
                          (F)     (DEG/KT/KT) (MB)    (MI)  (FT/S)
SOUTHERN BUOY              57 60  330/ 19/ 23 1018.2R         6/ 6
WAUKEGAN HARBOR            60      30/ 15/ 16   N/A
HARRISON CRIB              61     350/ 21/ 24   N/A
BURNHAM HARBOR             64     340/ 11/ 20   N/A
CALUMET HARBOR             64     340/ 14/ 20 1018.0S
MICHIGAN CITY              59     330/ 19/ 23   N/A
MICHIGAN CITY 6N           59 67  340/ 16/ 21   N/A           8/ 7
ST. JOSEPH                 58 66  340/ 17/ 23   N/A           9/ 7
$$

ILZ025>027-034>036-040-047-049-050-058-095>099-282100-
WEST-CENTRAL ILLINOIS

CITY           SKY/WX    TMP DP  RH WIND       PRES   REMARKS
QUINCY         MOSUNNY   73  54  51 NW14      30.15S
GALESBURG*     PTSUNNY   72  53  50 N13       30.14S
MACOMB*        MOSUNNY   72  53  50 N9        30.17S
JACKSONVILLE*  PTSUNNY   73  56  55 NW12      30.14S
PITTSFIELD*    MOSUNNY   74  54  49 NW9G17    30.15S
$$

ILZ028>032-037-038-041>044-048-051>054-059>061-282100-
CENTRAL ILLINOIS

CITY           SKY/WX    TMP DP  RH WIND       PRES   REMARKS
PONTIAC        SUNNY     72  52  49 N8G17     30.09S
DECATUR        PTSUNNY   73  53  49 N14G24    30.10S
PEORIA         MOSUNNY   74  50  42 N10G17    30.12R
LACON*         MOSUNNY   71  49  45 N8G17     30.11S
LINCOLN*       MOSUNNY   74  52  45 N12G17    30.09S
SPRINGFIELD    PTSUNNY   74  55  51 N12       30.12S
TAYLORVILLE    MOSUNNY   70  54  56 N13       30.10S
$$

ILZ033-039-045-046-055>057-062-063-282100-
EAST-CENTRAL ILLINOIS

CITY           SKY/WX    TMP DP  RH WIND       PRES   REMARKS
CHAMPAIGN      PTSUNNY   72  54  53 N13       30.08S
DANVILLE*      PTSUNNY   71  58  63 NW14      30.04S
RANTOUL*       PTSUNNY   73  51  45 NW13      30.08F
MATTOON        PTSUNNY   71  55  56 N15       30.07S
PARIS*         PTSUNNY   72  56  58 NW10G16   30.07S
$$

ILZ079-100>102-282100-
SOUTHWEST ILLINOIS

CITY           SKY/WX    TMP DP  RH WIND       PRES   REMARKS
ALTON          CLOUDY    73  63  68 N16       30.11S
BELLEVILLE     PTSUNNY   79  61  54 N15       30.08S HX  80
CAHOKIA*       PTSUNNY   78  60  53 N17       30.09F
SPARTA*        PTSUNNY   77  61  57 N10G17    30.09S
$$

ILZ064>066-069>071-074>076-080>082-084>086-088>090-092>094-282100-
SOUTH-CENTRAL ILLINOIS

CITY           SKY/WX    TMP DP  RH WIND       PRES   REMARKS
CARBONDALE     MOSUNNY   79  60  52 N12G20    30.06F HX  80
CAIRO*         MOSUNNY   83  65  54 W13       30.05F HX  85
EFFINGHAM*     PTSUNNY   74  52  46 N13       30.08S
MT. VERNON     MOSUNNY   75  61  60 N8        30.07S
CENTRALIA*     MOSUNNY   78  55  44 NW14G23   30.08S
SALEM*         PTSUNNY  N/A N/A N/A N16G22    30.08S
METROPOLIS*    MOSUNNY   80  57  45 NW8       30.04S HX  80
$$

ILZ067-068-072-073-078-083-087-091-282100-
SOUTHEAST ILLINOIS

CITY           SKY/WX    TMP DP  RH WIND       PRES   REMARKS
LAWRENCEVILLE  PTSUNNY   76  59  55 NW15G22   30.05R
FLORA*         SUNNY     75  57  54 NW12      30.07S
FAIRFIELD*     MOSUNNY   77  63  61 N10G18    30.05F
HARRISBURG*    MOSUNNY   77  61  58 NW13      30.06S
ROBINSON*      MOSUNNY   76  59  56 NW14      30.06S
CARMI*         MOSUNNY   81  63  54 NW13G20   30.03  HX  82
$$

ABBREVIATIONS USED IN REMARKS
   TC - TEMPERATURE IN CELSIUS
  WCI - WIND CHILL INDEX
   HX - HEAT INDEX
  VSB - VISIBILITY
$$





U.S. Dept. of Commerce
NOAA National Weather Service
1325 East West Highway
Silver Spring, MD 20910
E-mail: w-nws.webmaster@noaa.gov
Page last modified: May 16, 2007
NATIONAL WEATHER SERVICE: for Safety, for Work, for Fun - FOR LIFE